Flag for Malaysia Weather past 2 weeks in Kuala Lumpur, Malaysia

Now
86 °F

Partly sunny.


Feels Like: 93 °F
Forecast: 75 / 92 °F
Wind: 3 mph from Northwest

Location: Sultan Abdul Aziz Shah-Subang


UV Index: 7 (High)

Visibility: N/A


Pressure: 29.86 "Hg

Humidity: 66%

Dew point: 73 °F

Location of Kuala LumpurLocation

Historic Weather in Kuala Lumpur

°F

Kuala Lumpur temperature yesterday

Maximum temperature yesterday: 81 °F (at 8:00 AM)
Minimum temperature yesterday: 75 °F (at 11:00 AM)
Average temperature yesterday: 78 °F

Past Weeks' High & Low Weather Summary

 TemperatureHumidityPressure
High93 °F (Apr 11, 2:00 PM)100% (Apr 12, 4:00 AM)29.92 "Hg (Apr 12, 4:00 AM)
Low73 °F (Apr 12, 2:00 AM)56% (Apr 11, 1:00 PM)29.68 "Hg (Apr 23, 5:00 PM)
Average82 °F82%29.82 "Hg
* Reported Apr 10 11:00 AM — Apr 25 11:00 AM, Kuala Lumpur, Weather by CustomWeather, © 2014

Note: Actual official high and low records may vary slightly from our data, if they occured in-between our weather recording intervals... More about our weather records

Advertising

Historic Weather Conditions — Data for Previous 24 hours

 ConditionsComfort  
Time TempWeatherWind HumidityBarometerVisibility
11:00 AM
Apr 25
86 °FPartly sunny.3 mph66%29.86 "HgN/A
10:00 AM82 °FPartly sunny.1 mph79%29.86 "HgN/A
9:00 AM79 °FPartly sunny.3 mph84%29.86 "Hg6 mi
8:00 AM73 °FFog.No wind100%29.83 "Hg3 mi
7:00 AM73 °FPassing clouds.No wind94%29.83 "Hg4 mi
6:00 AM73 °FPassing clouds.No wind94%29.80 "Hg4 mi
5:00 AM73 °FFog.No wind100%29.77 "Hg2 mi
4:00 AM73 °FFog.No wind100%29.77 "Hg1 mi
3:00 AM75 °FFog.No wind94%29.77 "Hg1 mi
2:00 AM75 °FFog.1 mph94%29.80 "Hg1 mi
1:00 AM75 °FPartly cloudy.No wind94%29.83 "Hg3 mi
12:00 AM75 °FPartly cloudy.2 mph94%29.80 "Hg3 mi
11:00 PM
Apr 24
75 °FPartly cloudy.No wind100%29.83 "Hg4 mi
10:00 PM77 °FPassing clouds.No wind94%29.80 "Hg4 mi
9:00 PM77 °FPartly cloudy.1 mph94%29.80 "Hg5 mi
8:00 PM77 °FPartly cloudy.1 mph94%29.77 "HgN/A
7:00 PM79 °FBroken clouds.1 mph89%29.77 "HgN/A
6:00 PM79 °FBroken clouds.No wind89%29.77 "HgN/A
5:00 PM79 °FBroken clouds.2 mph89%29.77 "HgN/A
4:00 PM77 °FBroken clouds.6 mph89%29.77 "HgN/A
3:00 PM77 °FLight rain. Broken clouds.3 mph89%29.80 "Hg6 mi
2:00 PM75 °FLight rain. More clouds than sun.5 mph94%29.86 "Hg4 mi
1:00 PM75 °FLight rain. Broken clouds.5 mph94%29.89 "Hg4 mi
12:00 PM75 °FStrong thunderstorms. More clouds than sun.9 mph94%29.92 "Hg1 mi
Weather by CustomWeather, © 2014

See weather overview